Effective Sunday, March 17, 2024, the National Weather Service National Data Buoy Center will discontinue its Dial-A-Buoy Interactive Voice Response system. For more information, see Service Change Notice 24-06 (PDF).

Station YKTV2 - 8637689 - Yorktown USCG Training Center, VA Image indicating link to RSS feed of recent meteorological observations for station YKTV2


Conditions at YKTV2 as of
(5:00 pm EST)
2200 GMT on 02/24/2024:
     

Click on the graph icon in the table below to see a time series plot of the last five days of that observation.

5-day plot - Wind Direction Wind Direction (WDIR):ENE ( 70 deg true )
5-day plot - Wind Speed Wind Speed (WSPD): 8.0 kts
5-day plot - Wind Gust Wind Gust (GST): 9.9 kts
5-day plot - Atmospheric Pressure Atmospheric Pressure (PRES):29.77 in
5-day plot - Pressure Tendency Pressure Tendency (PTDY):+0.07 in ( Rising )
5-day plot - Wind Speed at 10 Meters Wind Speed at 10 meters (WSPD10M): 7.8 kts
5-day plot - Wind Speed at 20 Meters Wind Speed at 20 meters (WSPD20M): 9.7 kts
5-day plot -  Wind Speed, Wind Gust and Atmospheric Pressure Combined plot of Wind Speed, Gust, and Air Pressure
NOS Water Level Observation Network Water Level
Previous observations
TIME
(EST)
5-day plot - Wind Direction
WDIR
 
5-day plot - Wind Speed
WSPD
kts
5-day plot - Wind Gust
GST
kts
5-day plot - Wave Height
WVHT
ft
5-day plot - Dominant Wave Period
DPD
sec
5-day plot - Average Wave Period
APD
sec
5-day plot - Mean Wave Direction
MWD
 
5-day plot - Atmospheric Pressure
PRES
in
5-day plot - Pressure Tendency
PTDY
in
5-day plot - Air Temperature
ATMP
°F
5-day plot - Water Temperature
WTMP
°F
5-day plot - Dew Point
DEWP
°F
5-day plot - Salinity
SAL
psu
5-day plot - Visibility
VIS
nmi
5-day plot - Tide (above MLLW)
TIDE
ft
2024-02-24 04:54 pmENE 8.0 9.9----29.77-------
2024-02-24 04:48 pmENE 8.9 9.9----29.76- 46.9-----
2024-02-24 04:42 pmENE 11.1 12.0----29.76- 46.9-----
2024-02-24 04:36 pm E 9.9 12.0----29.75- 46.8-----
2024-02-24 04:30 pmENE 11.1 13.0----29.75- 46.8 47.3----
2024-02-24 04:24 pmENE 12.0 13.0----29.75- 46.8 47.1----
2024-02-24 04:18 pmENE 11.1 12.0----29.75- 46.8 47.1----
2024-02-24 04:12 pmENE 9.9 12.0----29.74- 46.8 47.1----
2024-02-24 04:06 pmENE 9.9 12.0----29.74- 46.8 47.1----
2024-02-24 04:00 pm-------29.74+0.04 46.8 47.1----
2024-02-24 03:54 pm-------29.74- 46.6 47.1----
2024-02-24 03:48 pm E 12.0 14.0----29.73-- 47.1----
2024-02-24 03:42 pm E 12.0 14.0----29.73-- 47.1----
2024-02-24 03:36 pmENE 13.0 14.0----29.72-- 47.1----
2024-02-24 03:30 pmENE 14.0 15.9------ 46.2 47.1----
2024-02-24 03:24 pm E 13.0 15.9------ 46.2 47.1----
2024-02-24 03:18 pm-------29.72- 46.2 47.1----
2024-02-24 03:12 pm-------29.72- 46.4 46.9----
2024-02-24 03:06 pm-------29.72- 46.4 47.1----
2024-02-24 03:00 pmENE 14.0 15.9----29.71+0.02 46.6 47.1----
2024-02-24 02:54 pmENE 15.0 17.1----29.71- 46.6 47.1----
2024-02-24 02:48 pmENE 15.0 17.1----29.71- 46.8 46.9----
2024-02-24 02:42 pmENE 15.0 17.1----29.70- 46.9 46.8----
2024-02-24 02:36 pmENE 15.0 17.1----29.70- 47.1 46.8----
2024-02-24 02:30 pmENE 14.0 15.0----29.70- 47.1-----
2024-02-24 02:24 pmENE 12.0 13.0----29.70- 47.1-----
2024-02-24 02:18 pmENE 13.0 14.0----29.70- 47.3 46.8----
2024-02-24 02:12 pmENE 11.1 11.1----29.70- 48.0 46.8----
2024-02-24 02:06 pmENE 8.0 8.9----29.70- 48.0 46.6----
2024-02-24 02:00 pm NE 6.0 8.9----29.70+0.00- 46.4----
2024-02-24 01:54 pm NE 8.0 9.9----29.70-- 46.4----
2024-02-24 01:48 pm NE 8.9 11.1----29.70- 48.7 46.6----
2024-02-24 01:42 pm NE 11.1 12.0----29.70- 49.1 46.6----
2024-02-24 01:36 pmENE 11.1 12.0----29.70- 49.1 46.9----
2024-02-24 01:30 pmENE 9.9 11.1----29.70- 49.1 46.9----
2024-02-24 01:24 pmENE 12.0 13.0----29.70- 48.9 46.8----
2024-02-24 01:18 pmENE 13.0 13.0----29.70- 48.9 46.6----
2024-02-24 01:12 pmENE 12.0 13.0----29.70- 49.1 46.4----
2024-02-24 01:06 pmENE 11.1 12.0----29.70- 49.3 46.6----
2024-02-24 01:00 pmENE 4.1 7.0----29.70-- 46.4----
2024-02-24 12:54 pm E 5.1 7.0----29.70-- 46.6----
2024-02-24 12:48 pm E 4.1 8.0----29.70-- 46.6----
2024-02-24 12:42 pm NE 5.1 6.0----29.70-- 46.6----
2024-02-24 12:36 pmENE 4.1 8.9----29.70-- 46.6----
2024-02-24 12:30 pm NE 7.0 8.9----29.69- 50.7 46.6----
2024-02-24 12:24 pmNNE 4.1 7.0----29.69- 51.1 46.4----
2024-02-24 12:18 pmNNE 8.0 9.9----29.69- 50.7 46.4----
2024-02-24 12:12 pmNNE 8.0 8.9----29.69- 50.7 46.4----
2024-02-24 12:06 pmNNE 6.0 8.0----29.69- 50.5 46.4----
2024-02-24 12:00 pm N 6.0 7.0----29.70+0.01 50.4 46.2----
2024-02-24 11:54 am NE 6.0 9.9----29.70- 49.8 46.0----
2024-02-24 11:48 amNNE 8.0 11.1----29.70-- 46.0----
2024-02-24 11:42 am N 8.9 11.1----29.70-- 46.2----
2024-02-24 11:36 am N 9.9 12.0----29.71-- 46.2----
2024-02-24 11:30 am N 11.1 14.0----29.71-- 46.0----
2024-02-24 11:24 amNNE 11.1 14.0----29.71-- 46.0----
2024-02-24 11:18 am N 11.1 14.0------ 49.8 46.0----
2024-02-24 11:12 amNNE 9.9 13.0------ 50.2 46.0----
2024-02-24 11:06 amNNE 12.0 15.0------ 50.0 46.0----
2024-02-24 11:00 am N 8.9 13.0----29.70-- 46.2----
2024-02-24 10:54 am N 8.0 9.9----29.70-- 46.2----
2024-02-24 10:48 am N 11.1 12.0----29.70-- 46.2----
2024-02-24 10:42 amNNW 7.0 9.9----29.70-- 46.4----
2024-02-24 10:36 amNNW 9.9 12.0----29.70-- 46.2----
2024-02-24 10:30 amNNW 8.9 13.0----29.70- 49.1 46.2----
2024-02-24 10:24 amNNW 12.0 13.0----29.70- 48.7 46.0----
2024-02-24 10:18 am N 11.1 14.0----29.70- 48.6 46.0----
2024-02-24 10:12 am N 11.1 14.0----29.70- 48.6 46.0----
2024-02-24 10:06 amNNW 9.9 13.0----29.70- 48.2 46.0----
2024-02-24 10:00 am N 9.9 12.0------------
2024-02-24 09:54 amNNW 11.1 14.0------------
2024-02-24 09:48 amNNW 12.0 15.0----29.69-- 45.9----
2024-02-24 09:42 amNNW 9.9 15.0----29.69-- 45.9----
2024-02-24 09:36 amNNW 8.9 11.1----29.69-- 46.0----
2024-02-24 09:30 amNNW 8.9 12.0----29.69- 47.3 45.9----
2024-02-24 09:24 am NW 7.0 9.9----29.68- 47.1 45.9----
2024-02-24 09:18 am NW 7.0 8.9----29.68- 47.1 45.9----
2024-02-24 09:12 am NW 7.0 8.9----29.68- 46.8 45.9----
2024-02-24 09:06 am NW 6.0 6.0----29.68- 46.8 45.9----
2024-02-24 09:00 am NW 5.1 7.0----29.68+0.07 46.8 46.0----
2024-02-24 08:54 am NW 5.1 6.0----29.68- 46.8 46.0----
2024-02-24 08:48 amWNW 5.1 6.0------- 46.0----
2024-02-24 08:42 amWNW 5.1 6.0------- 46.0----
2024-02-24 08:36 am NW 6.0 7.0------- 46.0----
2024-02-24 08:30 am NW 5.1 7.0----29.68-------
2024-02-24 08:24 am NW 5.1 7.0----29.67-------
2024-02-24 08:18 amWNW 4.1 5.1----29.67-------
2024-02-24 08:12 amWNW 4.1 5.1----29.67-------
2024-02-24 08:06 amWNW 4.1 5.1----29.67-------
2024-02-24 08:00 am--------- 46.2 46.0----
2024-02-24 07:54 am--------- 46.2 46.0----
2024-02-24 07:48 am W 2.9 2.9----29.66- 45.7 46.0----
2024-02-24 07:42 am W 2.9 2.9----29.66- 45.5 46.0----
2024-02-24 07:36 amWNW 1.9 2.9----29.65- 45.0 46.0----
2024-02-24 07:30 am W 1.9 2.9----29.65-------
2024-02-24 07:24 am W 1.9 2.9----29.65-------
2024-02-24 07:18 am W 2.9 5.1----29.65-- 46.0----
2024-02-24 07:12 am W 1.9 4.1----29.65-- 46.0----
2024-02-24 07:06 amWSW 2.9 4.1----29.64-- 46.0----
2024-02-24 07:00 am W 4.1 5.1----29.64+0.07 44.6 46.0----
2024-02-24 06:54 am W 5.1 6.0----29.64- 44.6 46.0----
2024-02-24 06:48 am W 6.0 7.0----29.64-- 46.0----
2024-02-24 06:42 am W 5.1 6.0----29.63-- 46.0----
2024-02-24 06:36 am W 5.1 6.0----29.63-- 46.0----
2024-02-24 06:30 am W 4.1 4.1----29.63- 44.8 46.0----
2024-02-24 06:24 am W 4.1 5.1----29.62- 44.8 46.0----
2024-02-24 06:18 am W 4.1 6.0----29.62- 44.8 46.0----
2024-02-24 06:12 am W 6.0 7.0----29.62- 44.8 46.0----
2024-02-24 06:06 am W 6.0 7.0----29.62- 45.1 46.0----
2024-02-24 06:00 am-------29.61-- 46.0----
2024-02-24 05:54 am-------29.61-- 46.0----
2024-02-24 05:48 am W 6.0 8.0----29.61- 44.8 46.0----
2024-02-24 05:42 am W 8.0 8.9----29.61- 44.8 46.0----
2024-02-24 05:36 am W 8.0 8.9----29.61- 44.8 46.0----
2024-02-24 05:30 am W 6.0 8.0----29.60-- 46.0----
2024-02-24 05:24 am W 8.0 8.9----29.60-- 46.0----
2024-02-24 05:18 am-------29.60- 45.0 46.0----
2024-02-24 05:12 am-------29.60- 45.1 46.0----
2024-02-24 05:06 am-------29.59- 45.1 46.0----
2024-02-24 05:00 am-------29.59+0.02- 46.0----
2024-02-24 04:54 am-------29.59-- 46.0----
2024-02-24 04:48 am W 6.0 8.0----29.58-- 46.0----
2024-02-24 04:42 am W 7.0 8.0----29.58-- 46.0----
2024-02-24 04:36 am W 7.0 8.9----29.58-- 46.0----
2024-02-24 04:30 am W 8.0 8.9------------
2024-02-24 04:24 am W 8.0 11.1------------
2024-02-24 04:18 am W 8.0 9.9----29.57- 46.2 46.0----
2024-02-24 04:12 am W 8.9 11.1----29.57- 47.1 46.0----
2024-02-24 04:06 am W 9.9 12.0----29.57- 46.8 46.0----
2024-02-24 04:00 am W 11.1 13.0----29.57+0.00 46.2 46.0----
2024-02-24 03:54 amWSW 11.1 13.0----29.57- 45.9 46.0----
2024-02-24 03:48 amWSW 12.0 15.0----29.57- 45.5 46.0----
2024-02-24 03:42 amWSW 9.9 12.0----29.57- 44.8 46.0----
2024-02-24 03:36 amWSW 8.0 11.1----29.57- 44.8 46.0----
2024-02-24 03:30 amWSW 9.9 12.0----29.57-- 46.0----
2024-02-24 03:24 am SW 8.9 11.1----29.56-- 46.0----
2024-02-24 03:18 amWSW 7.0 8.9----29.56-- 46.2----
2024-02-24 03:12 amWSW 5.1 8.0----29.56-- 46.2----
2024-02-24 03:06 amWSW 6.0 8.9----29.56-- 46.0----
2024-02-24 03:00 amWSW 7.0 8.9------- 46.0----
2024-02-24 02:54 amWSW 6.0 8.0------- 46.0----
2024-02-24 02:48 amWSW 5.1 8.0----29.57-- 46.0----
2024-02-24 02:42 amWSW 7.0 8.9----29.57-- 46.0----
2024-02-24 02:36 am W 7.0 8.9----29.57-- 46.0----
2024-02-24 02:30 am W 8.0 9.9----29.57-------
2024-02-24 02:24 am W 6.0 7.0----29.57-------
2024-02-24 02:18 am W 5.1 6.0----29.57- 45.1 46.0----
2024-02-24 02:12 amWNW 6.0 7.0----29.57- 44.6 46.0----
2024-02-24 02:06 amWNW 6.0 6.0----29.57- 44.6 46.0----
2024-02-24 02:00 am-------29.57+0.03 44.6 46.0----
2024-02-24 01:54 am-------29.57- 44.6 46.0----
2024-02-24 01:48 am W 6.0 8.0----29.57-- 46.0----
2024-02-24 01:42 am W 6.0 7.0----29.57-- 46.0----
2024-02-24 01:36 am W 6.0 8.0----29.57-- 46.0----
2024-02-24 01:30 am-------29.57- 44.6 46.0----
2024-02-24 01:24 am-------29.57- 44.6 46.0----
2024-02-24 01:18 am W 7.0 8.0----29.57-- 46.0----
2024-02-24 01:12 am W 7.0 8.0----29.57-- 46.0----
2024-02-24 01:06 am W 6.0 7.0----29.56-- 46.2----
2024-02-24 01:00 am W 6.0 7.0----29.56+0.00 44.6 46.2----
2024-02-24 12:54 am W 6.0 7.0----29.56- 44.4 46.2----
2024-02-24 12:48 am W 6.0 7.0----29.56-- 46.2----
2024-02-24 12:42 am W 5.1 6.0----29.56-- 46.2----
2024-02-24 12:36 am W 5.1 6.0----29.56-- 46.2----
2024-02-24 12:30 am W 5.1 7.0----29.56- 44.6 46.2----
2024-02-24 12:24 am W 6.0 7.0----29.55- 44.8 46.2----
2024-02-24 12:18 am W 6.0 7.0----29.55- 45.0 46.2----
2024-02-24 12:12 am W 6.0 8.0----29.55- 45.0 46.2----
2024-02-24 12:06 am W 7.0 8.9----29.55- 45.1 46.2----
2024-02-24 12:00 am W 7.0 8.0----29.55+0.00- 46.2----
2024-02-23 11:54 pm W 6.0 8.0----29.55-- 46.2----
2024-02-23 11:48 pm W 7.0 8.0----29.55- 45.7 46.2----
2024-02-23 11:42 pm W 8.0 8.0----29.55- 45.7 46.2----
2024-02-23 11:36 pm W 7.0 7.0----29.55- 45.7 46.4----
2024-02-23 11:30 pm W 6.0 8.0----29.54- 45.9 46.4----
2024-02-23 11:24 pm W 7.0 8.0----29.54- 46.0 46.2----
2024-02-23 11:18 pm W 7.0 8.0----29.54- 46.0 46.2----
2024-02-23 11:12 pm W 8.0 8.9----29.54- 46.2 46.2----
2024-02-23 11:06 pmWNW 8.0 8.9----29.54- 46.2 46.4----
2024-02-23 11:00 pmWNW 8.0 8.9----29.54+0.00 46.2-----
2024-02-23 10:54 pmWNW 7.0 8.0----29.54- 46.0-----
2024-02-23 10:48 pmWNW 5.1 6.0----29.54-- 46.2----
2024-02-23 10:42 pmWNW 6.0 7.0----29.54-- 46.0----
2024-02-23 10:36 pmWNW 6.0 7.0----29.54-- 46.0----
2024-02-23 10:30 pmWNW 6.0 7.0----29.54- 46.2 46.2----
2024-02-23 10:24 pmWNW 7.0 7.0----29.54- 46.4 46.2----
2024-02-23 10:18 pmWNW 6.0 8.0----29.55- 46.6 46.2----
2024-02-23 10:12 pm NW 6.0 8.0----29.55- 46.6 46.0----
2024-02-23 10:06 pm W 7.0 8.0----29.55- 46.6 46.0----
2024-02-23 10:00 pm W 6.0 8.0----29.56+0.03 46.8 46.0----
2024-02-23 09:54 pm W 6.0 7.0----29.56- 46.8 46.2----
2024-02-23 09:48 pm W 6.0 8.0----29.56- 46.8 46.4----
2024-02-23 09:42 pm W 7.0 8.9----29.56- 46.8 46.4----
2024-02-23 09:36 pm W 8.9 9.9----29.56- 46.9 46.4----
2024-02-23 09:30 pm W 7.0 11.1----29.55- 46.9 46.4----
2024-02-23 09:24 pm W 8.9 9.9----29.56- 46.9 46.4----
2024-02-23 09:18 pmWNW 8.0 11.1----29.55- 46.9 46.4----
2024-02-23 09:12 pmWNW 8.9 11.1----29.55- 47.1 46.4----
2024-02-23 09:06 pmWNW 8.9 12.0----29.55- 47.1 46.4----
2024-02-23 09:00 pmWNW 9.9 12.0----29.55+0.05 46.9 46.4----
2024-02-23 08:54 pmWNW 9.9 11.1----29.54- 46.9 46.4----
2024-02-23 08:48 pmWNW 8.0 12.0----29.54- 46.9 46.4----
2024-02-23 08:42 pmWNW 9.9 12.0----29.54- 46.9 46.4----
2024-02-23 08:36 pmWNW 9.9 11.1----29.54- 46.9 46.4----
2024-02-23 08:30 pmWNW 9.9 12.0----29.54-------
2024-02-23 08:24 pm NW 9.9 12.0----29.54-------
2024-02-23 08:18 pmWNW 9.9 12.0----29.54-- 46.4----
2024-02-23 08:12 pmWNW 9.9 12.0----29.54-- 46.4----
2024-02-23 08:06 pmWNW 9.9 12.0----29.54-- 46.4----
2024-02-23 08:00 pmWNW 8.0 9.9----29.54+0.07- 46.4----
2024-02-23 07:54 pm W 8.9 11.1----29.54-- 46.4----
2024-02-23 07:48 pm W 9.9 11.1----29.54-- 46.4----
2024-02-23 07:42 pmWNW 8.0 8.9----29.54-- 46.4----
2024-02-23 07:36 pmWNW 7.0 11.1----29.54-- 46.4----
2024-02-23 07:30 pm NW 9.9 13.0----29.54-- 46.4----
2024-02-23 07:24 pm NW 11.1 12.0----29.53-- 46.4----
2024-02-23 07:18 pm NW 12.0 14.0----29.53-- 46.4----
2024-02-23 07:12 pm NW 11.1 13.0----29.52-- 46.4----
2024-02-23 07:06 pm NW 12.0 14.0----29.52-- 46.4----
2024-02-23 07:00 pm NW 12.0 15.0----29.53+0.07------
2024-02-23 06:54 pm NW 13.0 17.1----29.52-------
2024-02-23 06:48 pm NW 15.0 17.1----29.52- 47.5 46.4----
2024-02-23 06:42 pm NW 15.0 17.1----29.52- 47.5 46.4----
2024-02-23 06:36 pm NW 15.0 18.1----29.51- 47.5 46.4----
2024-02-23 06:30 pm NW 15.0 17.1----29.51- 47.7 46.4----
2024-02-23 06:24 pmWNW 14.0 17.1----29.51- 47.8 46.4----
2024-02-23 06:18 pmWNW 13.0 15.9----29.51-- 46.4----
2024-02-23 06:12 pmWNW 14.0 15.9----29.50-- 46.4----
2024-02-23 06:06 pmWNW 14.0 15.9----29.50-- 46.4----
2024-02-23 06:00 pmWNW 13.0 14.0----29.49+0.04 47.5 46.4----
2024-02-23 05:54 pmWNW 8.9 9.9----29.49- 47.3 46.4----
2024-02-23 05:48 pm NW 5.1 6.0----29.48- 47.5 46.4----
2024-02-23 05:42 pm NW 5.1 6.0----29.48- 47.5 46.4----
2024-02-23 05:36 pm NW 6.0 7.0----29.48- 47.7 46.4----
2024-02-23 05:30 pm NW 5.1 7.0----29.47- 47.8 46.6----
2024-02-23 05:24 pm NW 6.0 7.0----29.47- 48.0 46.6----
2024-02-23 05:18 pmNNW 5.1 6.0----29.47- 47.8 46.6----
2024-02-23 05:12 pmNNW 5.1 7.0----29.46- 47.8 46.6----
2024-02-23 05:06 pmNNW 6.0 8.0----29.47- 48.0 46.6----
2024-02-23 05:00 pmNNW 8.0 11.1----29.47+0.03 48.0 46.6----
2024-02-23 04:54 pmNNW 9.9 12.0----29.47- 48.2 46.6----